BOE001 KPAE-KLAS

Flight info

Callsign BOE001
Flight time N/A
Altitude 39000
Route SEA J5 LKV RYANN J92 OAL TQILA COKTL4
Aircraft B77W/H-SDE1E2E3FGHIJ2J3J4J5M1RWXY/LB1D1

Departure

Time 2026-04-28 11:43
Airport Seattle Paine Field International Airport (KPAE)

Arrival

Time N/A
Airport Harry Reid International Airport (KLAS)
Time Latitude Longitude Altitude Speed Heading
2026-04-28 11:09 47.91681 -122.27945 578 ft 0 kts 91°
2026-04-28 11:30 47.91681 -122.27946 578 ft 1 kts 91°
2026-04-28 11:30 47.91673 -122.28016 576 ft 3 kts 53°
2026-04-28 11:30 47.91654 -122.28041 576 ft 3 kts 30°
2026-04-28 11:31 47.91634 -122.28052 576 ft 3 kts
2026-04-28 11:31 47.91631 -122.28052 576 ft 0 kts
2026-04-28 11:31 47.91644 -122.28050 576 ft 3 kts
2026-04-28 11:31 47.91671 -122.28046 576 ft 3 kts
2026-04-28 11:32 47.91699 -122.28046 576 ft 4 kts 360°
2026-04-28 11:32 47.91726 -122.28047 576 ft 3 kts 359°
2026-04-28 11:32 47.91753 -122.28048 576 ft 3 kts
2026-04-28 11:32 47.91780 -122.28047 577 ft 3 kts
2026-04-28 11:33 47.91807 -122.28046 578 ft 3 kts
2026-04-28 11:33 47.91834 -122.28047 578 ft 3 kts 359°
2026-04-28 11:33 47.91862 -122.28046 578 ft 4 kts
2026-04-28 11:33 47.91889 -122.28046 578 ft 4 kts
2026-04-28 11:34 47.91917 -122.28046 578 ft 4 kts
2026-04-28 11:34 47.91945 -122.28046 578 ft 4 kts
2026-04-28 11:34 47.91973 -122.28046 578 ft 4 kts
2026-04-28 11:34 47.92001 -122.28046 578 ft 4 kts
2026-04-28 11:35 47.92030 -122.28046 578 ft 4 kts
2026-04-28 11:35 47.92059 -122.28046 577 ft 4 kts
2026-04-28 11:35 47.92087 -122.28046 576 ft 4 kts
2026-04-28 11:35 47.92117 -122.28046 576 ft 4 kts
2026-04-28 11:36 47.92138 -122.28049 575 ft 2 kts 335°
2026-04-28 11:36 47.92149 -122.28068 574 ft 3 kts 294°
2026-04-28 11:36 47.92152 -122.28090 573 ft 0 kts 279°
2026-04-28 11:39 47.92156 -122.28123 572 ft 7 kts 280°
2026-04-28 11:39 47.92164 -122.28215 568 ft 9 kts 273°
2026-04-28 11:40 47.92162 -122.28324 564 ft 10 kts 265°
2026-04-28 11:40 47.92157 -122.28407 565 ft 6 kts 265°
2026-04-28 11:40 47.92153 -122.28463 566 ft 4 kts 264°
2026-04-28 11:40 47.92151 -122.28500 567 ft 3 kts 264°
2026-04-28 11:41 47.92148 -122.28541 568 ft 6 kts 261°
2026-04-28 11:41 47.92140 -122.28569 569 ft 2 kts 225°
2026-04-28 11:41 47.92119 -122.28584 570 ft 3 kts 192°
2026-04-28 11:41 47.92108 -122.28584 570 ft 0 kts 181°
2026-04-28 11:42 47.92088 -122.28585 570 ft 13 kts 180°
2026-04-28 11:42 47.91743 -122.28578 577 ft 87 kts 179°
2026-04-28 11:42 47.90910 -122.28562 595 ft 149 kts 178°
2026-04-28 11:43 47.89839 -122.28592 1224 ft 153 kts 185°
2026-04-28 11:43 47.88771 -122.28743 1957 ft 158 kts 182°
2026-04-28 11:43 47.87676 -122.28809 2502 ft 164 kts 181°
2026-04-28 11:43 47.86544 -122.28869 3124 ft 165 kts 180°
2026-04-28 11:44 47.85419 -122.28910 3697 ft 168 kts 181°
2026-04-28 11:44 47.84191 -122.28958 4017 ft 187 kts 181°
2026-04-28 11:44 47.82842 -122.29016 4453 ft 204 kts 182°
2026-04-28 11:44 47.81335 -122.29094 4843 ft 226 kts 182°
2026-04-28 11:45 47.79668 -122.29190 5123 ft 254 kts 182°
2026-04-28 11:45 47.77853 -122.29286 5734 ft 267 kts 182°
2026-04-28 11:45 47.75980 -122.29381 6447 ft 276 kts 182°
2026-04-28 11:45 47.74263 -122.29464 7240 ft 277 kts 182°
2026-04-28 11:46 47.73474 -122.29503 7578 ft 279 kts 182°
2026-04-28 11:46 47.71520 -122.29598 8322 ft 285 kts 183°
2026-04-28 11:46 47.69505 -122.29697 9086 ft 290 kts 183°
2026-04-28 11:46 47.67487 -122.29796 9830 ft 295 kts 184°
2026-04-28 11:47 47.65440 -122.29896 10458 ft 304 kts 184°
2026-04-28 11:47 47.63256 -122.30006 10886 ft 321 kts 184°
2026-04-28 11:47 47.60966 -122.30118 11337 ft 339 kts 184°
2026-04-28 11:47 47.58572 -122.30235 11819 ft 355 kts 184°
2026-04-28 11:48 47.56060 -122.30357 12343 ft 371 kts 184°
2026-04-28 11:48 47.53425 -122.30486 12877 ft 388 kts 183°
2026-04-28 11:48 47.50704 -122.30618 13658 ft 398 kts 183°
2026-04-28 11:48 47.47905 -122.30753 14600 ft 405 kts 183°
2026-04-28 11:49 47.45081 -122.30856 15518 ft 413 kts 180°
2026-04-28 11:49 47.42211 -122.30424 16469 ft 422 kts 170°
2026-04-28 11:49 47.39341 -122.29382 17432 ft 429 kts 165°
2026-04-28 11:49 47.36454 -122.28211 18359 ft 436 kts 165°
2026-04-28 11:50 47.33518 -122.27021 19259 ft 443 kts 165°
2026-04-28 11:50 47.30548 -122.25826 20152 ft 450 kts 165°
2026-04-28 11:50 47.27529 -122.24616 21022 ft 457 kts 165°
2026-04-28 11:50 47.24451 -122.23388 21839 ft 464 kts 165°
2026-04-28 11:51 47.21337 -122.22149 22666 ft 470 kts 165°
2026-04-28 11:51 47.18157 -122.20887 23511 ft 474 kts 165°
2026-04-28 11:51 47.14965 -122.19623 24278 ft 481 kts 165°
2026-04-28 11:51 47.11718 -122.18340 24924 ft 490 kts 165°
2026-04-28 11:52 47.08416 -122.17036 25675 ft 497 kts 165°
2026-04-28 11:52 47.05060 -122.15714 26420 ft 503 kts 165°
2026-04-28 11:52 47.01667 -122.14380 27110 ft 510 kts 164°
2026-04-28 11:52 46.98227 -122.13029 27775 ft 517 kts 165°
2026-04-28 11:53 46.94756 -122.11668 28443 ft 524 kts 165°
2026-04-28 11:53 46.92437 -122.10759 28898 ft 528 kts 164°
2026-04-28 11:53 46.87679 -122.08898 29882 ft 533 kts 164°
2026-04-28 11:53 46.84099 -122.07501 30669 ft 536 kts 164°
2026-04-28 11:54 46.80466 -122.06084 31475 ft 537 kts 164°
2026-04-28 11:54 46.76875 -122.04685 32313 ft 536 kts 164°
2026-04-28 11:54 46.73304 -122.03297 33157 ft 535 kts 164°
2026-04-28 11:54 46.69742 -122.01915 33937 ft 533 kts 164°
2026-04-28 11:55 46.66119 -122.00510 34555 ft 534 kts 164°
2026-04-28 11:55 46.62512 -121.99113 35099 ft 534 kts 164°
2026-04-28 11:55 46.58866 -121.97704 35673 ft 534 kts 163°
2026-04-28 11:55 46.55288 -121.96323 36278 ft 532 kts 163°
2026-04-28 11:56 46.51704 -121.94941 37057 ft 529 kts 163°
2026-04-28 11:56 46.48154 -121.93574 37719 ft 527 kts 163°
2026-04-28 11:56 46.44614 -121.92213 38249 ft 527 kts 163°
2026-04-28 11:56 46.41092 -121.90861 38748 ft 526 kts 163°
2026-04-28 11:57 46.37558 -121.89506 39139 ft 527 kts 163°
2026-04-28 11:57 46.34006 -121.88145 39136 ft 528 kts 163°
2026-04-28 11:57 46.26946 -121.85448 39111 ft 525 kts 163°
2026-04-28 11:58 46.19850 -121.82743 39116 ft 526 kts 163°
2026-04-28 11:58 46.12757 -121.80047 39116 ft 525 kts 163°
2026-04-28 11:59 46.05734 -121.77383 39101 ft 525 kts 163°
2026-04-28 11:59 45.98599 -121.74686 39097 ft 528 kts 163°
2026-04-28 12:00 45.91554 -121.72029 39100 ft 526 kts 163°
2026-04-28 12:00 45.84449 -121.69357 39101 ft 526 kts 163°
2026-04-28 12:01 45.77370 -121.66702 39132 ft 527 kts 163°
2026-04-28 12:01 45.70334 -121.64069 39131 ft 526 kts 163°
2026-04-28 12:02 45.63264 -121.61430 39110 ft 526 kts 162°
2026-04-28 12:02 45.56137 -121.58777 39130 ft 526 kts 163°
2026-04-28 12:03 45.49056 -121.56149 39109 ft 527 kts 163°
2026-04-28 12:03 45.42004 -121.53537 39102 ft 527 kts 163°
2026-04-28 12:04 45.34900 -121.50914 39108 ft 526 kts 163°
2026-04-28 12:04 45.27849 -121.48316 39096 ft 527 kts 162°
2026-04-28 12:05 45.20776 -121.45718 39122 ft 527 kts 162°
2026-04-28 12:05 45.13683 -121.43118 39120 ft 526 kts 163°
2026-04-28 12:06 45.06590 -121.40526 39125 ft 526 kts 162°
2026-04-28 12:06 44.99477 -121.37933 39150 ft 526 kts 162°
2026-04-28 12:07 44.92403 -121.35360 39139 ft 525 kts 162°
2026-04-28 12:07 44.85316 -121.32790 39121 ft 526 kts 163°
2026-04-28 12:08 44.78231 -121.30225 39125 ft 526 kts 163°
2026-04-28 12:08 44.71148 -121.27670 39119 ft 525 kts 163°
2026-04-28 12:09 44.64125 -121.25141 39137 ft 525 kts 163°
2026-04-28 12:09 44.57064 -121.22606 39138 ft 524 kts 163°
2026-04-28 12:10 44.49971 -121.20064 39136 ft 525 kts 163°
2026-04-28 12:10 44.42903 -121.17540 39123 ft 522 kts 163°
2026-04-28 12:11 44.35838 -121.15022 39132 ft 521 kts 163°
2026-04-28 12:11 44.28864 -121.12543 39108 ft 520 kts 163°
2026-04-28 12:12 44.21854 -121.10056 39112 ft 521 kts 163°
2026-04-28 12:12 44.14837 -121.07574 39086 ft 520 kts 163°
2026-04-28 12:13 44.07837 -121.05104 39112 ft 520 kts 163°
2026-04-28 12:13 44.00866 -121.02650 39128 ft 519 kts 163°
2026-04-28 12:14 43.93901 -121.00204 39139 ft 517 kts 163°
2026-04-28 12:14 43.86915 -120.97757 39138 ft 517 kts 163°
2026-04-28 12:15 43.79956 -120.95324 39123 ft 519 kts 163°
2026-04-28 12:15 43.72968 -120.92889 39128 ft 517 kts 163°
2026-04-28 12:16 43.66006 -120.90467 39136 ft 518 kts 163°
2026-04-28 12:16 43.59033 -120.88047 39142 ft 517 kts 163°
2026-04-28 12:17 43.52067 -120.85636 39130 ft 515 kts 163°
2026-04-28 12:17 43.45148 -120.83247 39136 ft 514 kts 163°
2026-04-28 12:18 43.38231 -120.80864 39130 ft 514 kts 163°
2026-04-28 12:18 43.31318 -120.78487 39149 ft 513 kts 164°
2026-04-28 12:19 43.24381 -120.76109 39132 ft 516 kts 164°
2026-04-28 12:19 43.17440 -120.73735 39148 ft 512 kts 163°
2026-04-28 12:20 43.10544 -120.71381 39164 ft 513 kts 164°
2026-04-28 12:20 43.03645 -120.69032 39157 ft 512 kts 164°
2026-04-28 12:21 42.96764 -120.66695 39164 ft 513 kts 164°
2026-04-28 12:21 42.89836 -120.64346 39168 ft 513 kts 164°
2026-04-28 12:22 42.82905 -120.62003 39146 ft 509 kts 164°
2026-04-28 12:22 42.76048 -120.59690 39150 ft 509 kts 164°
2026-04-28 12:23 42.69201 -120.57385 39122 ft 510 kts 164°
2026-04-28 12:23 42.62327 -120.55077 39137 ft 508 kts 164°
2026-04-28 12:24 42.55452 -120.52773 39127 ft 511 kts 164°
2026-04-28 12:24 42.48580 -120.50474 39120 ft 508 kts 164°
2026-04-28 12:25 42.41790 -120.47819 39123 ft 507 kts 161°
2026-04-28 12:25 42.36183 -120.45572 39134 ft 509 kts 162°
2026-04-28 12:26 42.31676 -120.43778 39136 ft 505 kts 162°
2026-04-28 12:26 42.22063 -120.39973 39114 ft 507 kts 162°
2026-04-28 12:27 42.15648 -120.37448 39079 ft 504 kts 162°
2026-04-28 12:27 42.11201 -120.35702 39079 ft 504 kts 162°
2026-04-28 12:28 41.99885 -120.31274 39132 ft 504 kts 163°